Location: Unspecified
(43.4680°N, 87.1740°E)
Time: 05:48:24
(UTC+00:00)

Gbstr 26 Del rocket - Pass Details

Date: 17 April 2021
Orbit: 493 x 1263 km, 51.8° (Epoch: 16 May)

Event Time Altitude Azimuth Distance (km) Brightness Sun altitude
Exits shadow 20:54:31 44° 279° (W) 1,162 4.1 -24.2°
Maximum altitude 20:56:05 60° 333° (NNW) 935 3.9 -24.0°
Drops below altitude 10° 21:01:06 10° 54° (NE) 2,178 6.9 -23.3°
Sets 21:03:17 0° 58° (ENE) 2,994 7.9 -23.0°
